Home > Weather > Bamenda > Past weeks

Flag for Cameroon Weather for the Past 2 Weeks in Bamenda, Cameroon

Now
86 °F

Scattered clouds.


Feels Like: 97 °F
Forecast: 63 / 81 °F
Wind: 2 mph from West

Location: Douala Obs.

Current Time: May 4, 2016 at 7:08:39 PM

Latest Report: May 4, 2016 at 6:00 PM


Visibility: N/A

Pressure: 29.80 "Hg (25.91 "Hg at 1240m altitude)

Humidity: 75%

Dew Point: 77 °F

Location of BamendaLocation

Historic Weather in Bamenda — Graph

°F

Bamenda Temperature Yesterday

Maximum temperature yesterday: 91 °F (at 4:00 PM)
Minimum temperature yesterday: 75 °F (at 1:00 AM)
Average temperature yesterday: 82 °F

High & Low Weather Summary for the Past Weeks

 TemperatureHumidityPressure
High93 °F (Apr 20, 2:00 PM)100% (Apr 20, 2:00 AM)29.92 "Hg (Apr 20, 2:00 AM)
Low73 °F (Apr 20, 5:00 PM)56% (Apr 28, 4:00 PM)29.68 "Hg (Apr 28, 5:00 PM)
Average83 °F85%29.80 "Hg
* Reported Apr 19 5:00 PM — May 4 5:00 PM, Bamenda, Weather by CustomWeather, © 2016

Note: Actual official high and low records may vary slightly from our data, if they occured in-between our weather recording intervals... More about our weather records

Advertising

Bamenda Weather History for the Previous 24 Hours

Scroll right to see more
 ConditionsComfort  
Time TempWeatherWind HumidityBarometerVisibility
5:00 PM
Wed, May 4
88 °FScattered clouds.8 mph66%29.80 "HgN/A
4:00 PM90 °FPartly sunny.6 mph67%29.80 "HgN/A
3:00 PM91 °FPartly sunny.7 mph63%29.83 "HgN/A
2:00 PM91 °FPartly sunny.5 mph63%29.83 "HgN/A
1:00 PM91 °FPartly sunny.3 mph59%29.86 "HgN/A
12:00 PM88 °FPartly sunny.6 mph66%29.92 "HgN/A
11:00 AM86 °FBroken clouds.2 mph66%29.92 "HgN/A
10:00 AM82 °FThunderstorms. Partly sunny.2 mph74%29.92 "HgN/A
9:00 AM81 °FThunderstorms. Partly sunny.2 mph79%29.92 "HgN/A
8:00 AM77 °FThunderstorms. Partly sunny.3 mph89%29.89 "HgN/A
7:00 AM77 °FThunderstorms. Partly sunny.5 mph100%29.83 "HgN/A
6:00 AM77 °FThunderstorms. Partly cloudy.2 mph100%29.83 "HgN/A
5:00 AM77 °FThunderstorms. Passing clouds.2 mph94%29.80 "HgN/A
3:00 AM77 °FThunderstorms. Partly cloudy.1 mph89%29.86 "HgN/A
2:00 AM77 °FThunderstorms. Partly cloudy.No wind89%29.86 "HgN/A
1:00 AM81 °FThunderstorms. Partly cloudy.5 mph94%29.89 "HgN/A
12:00 AM82 °FThunderstorms. Partly cloudy.5 mph89%29.89 "HgN/A
11:00 PM
Tue, May 3
82 °FThunderstorms. Partly cloudy.2 mph89%29.89 "HgN/A
10:00 PM82 °FThunderstorms. Passing clouds.No wind89%29.86 "HgN/A
9:00 PM84 °FThunderstorms. Passing clouds.2 mph79%29.83 "HgN/A
8:00 PM84 °FThunderstorms. Passing clouds.5 mph79%29.80 "HgN/A
7:00 PM84 °FPassing clouds.6 mph74%29.77 "HgN/A
Weather by CustomWeather, © 2016

See weather overviewHow to use our weather pages